Weather in Nizino

Russia / Saint-Petersburg and Leningrad Oblast     59°49′59″N   29°52′32″E
temp.,
°C
wind,
m/s
gust,
m/s
humid.,
%
clouds,
%
prec.,
mm/h
press.,
hPa
HPBL,
m
12 april, mon
mon1200:00+4se3772100 0.0 1028160
03:00+4ese41084100 0.6 1028323
06:00+5se4129478 0.6 1025289
09:00+9sse51581100 0.6 1025394
12:00+13s71459100 0.0 1024815
15:00+16s71249100 0.0 10231306
18:00+15s61252100 0.0 1022977
21:00+10sse413688 0.0 1021270
13 april, tue
tue1300:00+9s51471100 0.0 1020341
03:00+7s51278100 0.0 1019287
06:00+6s4118348 0.0 1019263
09:00+9s477178 0.0 1019255
12:00+13ssw465725 0.0 1019800
15:00+12wnw4562100 0.0 1020942
18:00+6nw4670100 0.0 1021370
21:00+4nw4874100 0.2 1021397
14 april, wed
wed1400:00+4nw3762100 0.0 1021403
03:00+3nw4762100 0.1 1020540
06:00+2nnw3877100 0.1 1020471
09:00+2n2582100 0.9 1020325
12:00+5nnw3563100 0.2 1020614
15:00+7nw4554100 0.2 1020902
18:00+6nw455798 0.0 1021608
21:00+3wnw3674100 0.0 1022157
15 april, thu
thu1500:00+2nw368027 0.0 1023125
03:00+1n2483100 0.0 102479
06:000n238849 0.0 102547
09:00+3nne357499 0.0 1026346
12:00+7ne565490 0.0 10261032
15:00+8ne574670 0.0 10271210
18:00+6ne584850 0.0 1027952
21:00+3nne39695 0.0 1028235
16 april, fri
fri1600:00+1nne39750 0.0 1028197
03:000ne310850 0.0 1029218
06:000ne311793 0.0 1030239
09:00+5ne5106138 0.0 1031524
12:00+8ne69455 0.0 1031972
15:00+9ne794286 0.0 10311030
18:00+8ne69526 0.0 1032957
21:00+5ne412692 0.0 1033396